Location: Asheville, NC
(35.6000°N, 82.5500°W)
Time: 16:37:51
(UTC-05:00)

AO-85 - Visible Passes

Search period start: 18 January 2018 00:00
Search period end: 28 January 2018 00:00
Orbit: 509 x 777 km, 64.8° (Epoch: 15 January)

Date Brightness Start Highest point End Pass type
(mag) Time Alt. Az. Time Alt. Az. Time Alt. Az.
23 Jan ? 19:11:35 10° NNE 19:12:09 11° NNE 19:12:09 11° NNE visible
24 Jan ? 19:35:11 10° N 19:37:20 21° NNE 19:37:20 21° NNE visible
25 Jan ? 19:59:40 10° NNW 20:02:46 37° N 20:02:46 37° N visible
26 Jan ? 18:45:16 10° N 18:48:58 20° NE 18:50:50 17° ENE visible
26 Jan ? 20:24:43 10° NW 20:28:35 45° WNW 20:28:35 45° WNW visible
27 Jan ? 19:09:27 10° NNW 19:14:16 43° NE 19:17:11 23° ESE visible
27 Jan ? 20:50:32 10° WNW 20:54:28 22° WSW 20:54:58 22° WSW visible
